Location: ???? ????
(41.4149°N, 22.8816°E)
Time: 14:08:52
(UTC+00:00)

CZ-4B R/B - Pass Details

Date: 14 July 2020
Orbit: 391 x 465 km, 97.6° (Epoch: 04 August)

Event Time Altitude Azimuth Distance (km) Brightness Sun altitude
Rises 02:08:08 0° 144° (SE) 2,481 5.1 -9.9°
Reaches altitude 10° 02:10:19 10° 133° (SE) 1,614 4.3 -9.6°
Maximum altitude 02:13:23 30° 71° (ENE) 869 3.7 -9.1°
Drops below altitude 10° 02:16:28 10° 9° (N) 1,626 5.0 -8.7°
Sets 02:18:40 0° 359° (N) 2,503 5.8 -8.4°
